Decatur, AL

10:43 AM CDT on May 25, 2018 (GMT -0500)
Pryor Regional

Weather History for KDCU - December, 2012

Change the Weather History Date:

Friday, December 28, 2012

  Actual Average Record
Temperature  
Mean Temperature 37 °F -  
Max Temperature 44 °F 51 °F 75 °F (1982)
Min Temperature 30 °F 32 °F 16 °F (2010)
Degree Days  
Heating Degree Days 28    
Moisture  
Dew Point 36 °F    
Average Humidity 89    
Maximum Humidity 100    
Minimum Humidity 79    
Precipitation  
Precipitation 0.30 in - - ()
Sea Level Pressure  
Sea Level Pressure 29.93 in    
Wind  
Wind Speed 5 mph (SE)    
Max Wind Speed 16 mph    
Max Gust Speed -    
Visibility 7 miles    
Events      
Averages and records for this station are not official NWS values.
T = Trace of Precipitation, MM = Missing Value Source: NWS Daily Summary

Daily Weather History Graph

Daily Weather History Graph

Search for Another Location

Airport or City:

Astronomy

Dec. 28, 2012 Rise Set
Actual Time 6:54 AM CST 4:45 PM CST
Civil Twilight 6:26 AM CST 5:13 PM CST
Nautical Twilight 5:54 AM CST 5:44 PM CST
Astronomical Twilight 5:23 AM CST 6:15 PM CST
Moon 5:19 PM CST (12/28) 6:50 AM CST (12/28)
Length of Visible Light 10h 47m
Length of Day
9h 51m
Full, 100% of the Moon is Illuminated
Dec 28
Full
Jan 4
Last Quarter
Jan 11
New
Jan 18
First Quarter
Jan 26
Full

Hourly Weather History & Observations

Time (CST) Temp. Windchill Dew Point Humidity Pressure Visibility Wind Dir Wind Speed Gust Speed Precip Events Conditions
12:53 AM 30.0 °F - 27.0 °F 88% 30.09 in 8.0 mi Calm Calm - N/A   Clear
1:53 AM 30.0 °F 26.5 °F 28.0 °F 92% 30.10 in 7.0 mi NE 3.5 mph - N/A   Overcast
2:53 AM 32.0 °F 27.5 °F 28.9 °F 88% 30.09 in 8.0 mi ENE 4.6 mph - N/A   Overcast
3:53 AM 33.1 °F - 28.9 °F 85% 30.10 in 9.0 mi Calm Calm - N/A   Overcast
4:53 AM 33.1 °F 30.0 °F 30.0 °F 89% 30.07 in 8.0 mi ESE 3.5 mph - N/A   Overcast
5:53 AM 34.0 °F - 30.0 °F 85% 30.08 in 9.0 mi Calm Calm - N/A   Overcast
6:53 AM 34.0 °F 31.0 °F 30.9 °F 89% 30.12 in 8.0 mi NNW 3.5 mph - N/A   Overcast
7:53 AM 35.1 °F 32.2 °F 30.9 °F 85% 30.12 in 8.0 mi ENE 3.5 mph - N/A   Overcast
8:53 AM 36.0 °F 33.3 °F 32.0 °F 86% 30.12 in 8.0 mi North 3.5 mph - N/A   Overcast
9:53 AM 37.0 °F 34.5 °F 33.1 °F 86% 30.13 in 6.0 mi North 3.5 mph - N/A   Overcast
10:53 AM 37.0 °F 27.7 °F 33.1 °F 86% 30.05 in 7.0 mi ESE 16.1 mph - N/A   Overcast
11:53 AM 39.0 °F 33.4 °F 33.1 °F 79% 30.01 in 8.0 mi SE 8.1 mph - N/A   Overcast
12:53 PM 39.0 °F 32.3 °F 34.0 °F 82% 29.96 in 7.0 mi SE 10.4 mph - 0.01 in   Overcast
1:53 PM 39.9 °F 33.9 °F 35.1 °F 83% 29.92 in 7.0 mi ESE 9.2 mph - 0.03 in   Overcast
2:53 PM 39.9 °F - 36.0 °F 86% 29.92 in 6.0 mi Calm Calm - 0.01 in   Overcast
3:53 PM 39.9 °F 36.7 °F 37.0 °F 89% 29.91 in 7.0 mi NNE 4.6 mph - 0.04 in   Overcast
4:53 PM 39.9 °F 35.1 °F 37.0 °F 89% 29.86 in 10.0 mi ESE 6.9 mph - N/A   Overcast
5:53 PM 42.1 °F 35.2 °F 36.0 °F 79% 29.82 in 9.0 mi SE 12.7 mph - N/A   Overcast
6:09 PM 42.8 °F 36.6 °F 37.4 °F 81% 29.79 in 9.0 mi SE 11.5 mph - N/A   Overcast
6:53 PM 42.1 °F 35.7 °F 37.9 °F 85% 29.81 in 5.0 mi SSE 11.5 mph - 0.02 in   Overcast
7:18 PM 42.8 °F 39.3 °F 39.2 °F 87% 29.81 in 6.0 mi South 5.8 mph - 0.02 in   Overcast
7:53 PM 42.1 °F 35.2 °F 39.9 °F 92% 29.77 in 6.0 mi SE 12.7 mph - 0.06 in   Overcast
8:26 PM 42.8 °F 37.5 °F 39.2 °F 87% 29.79 in 10.0 mi South 9.2 mph - 0.01 in   Overcast
8:50 PM 42.8 °F 37.5 °F 41.0 °F 93% 29.77 in 10.0 mi SSE 9.2 mph - 0.01 in   Overcast
8:53 PM 43.0 °F 37.7 °F 41.0 °F 93% 29.78 in 10.0 mi SSE 9.2 mph - 0.01 in   Overcast
9:53 PM 44.1 °F 37.7 °F 39.9 °F 85% 29.78 in 10.0 mi SSE 12.7 mph - N/A   Overcast
10:32 PM 42.8 °F 38.0 °F 41.0 °F 93% 29.84 in 3.0 mi West 8.1 mph - 0.05 in   Overcast
10:38 PM 42.8 °F 37.5 °F 41.0 °F 93% 29.83 in 4.0 mi West 9.2 mph - 0.06 in   Overcast
10:53 PM 43.0 °F 38.2 °F 41.0 °F 93% 29.83 in 4.0 mi WSW 8.1 mph - 0.08 in   Overcast
11:11 PM 42.8 °F 38.6 °F 42.8 °F 100% 29.83 in 5.0 mi West 6.9 mph - N/A   Overcast
11:28 PM 42.8 °F 38.0 °F 42.8 °F 100% 29.84 in 3.0 mi West 8.1 mph - 0.02 in   Overcast
11:35 PM 42.8 °F 38.0 °F 42.8 °F 100% 29.84 in 3.0 mi West 8.1 mph - 0.02 in   Overcast
11:53 PM 43.0 °F 39.5 °F 42.1 °F 97% 29.84 in 3.0 mi WSW 5.8 mph - 0.04 in   Overcast